EW1710 Weather Reports


Display with metric or nautical units.
time (UTC)temp
F
wind
direction
speed
MPH
gust
MPH
rain 1hr
in
rain 24hr
in
rain mn
in
humidity
%
barometer
mb
20260831052649 71 203 2.0 3.0 0.00 0.00 0.00 92 1020.8
20260831052148 71 102 0.0 0.0 0.00 0.00 0.00 92 1020.7
20260831051646 71 128 2.0 2.0 0.00 0.00 0.00 92 1020.7
20260831051145 71 163 1.0 1.0 0.00 0.00 0.00 92 1020.8
20260831050640 71 96 3.0 5.0 0.00 0.00 0.00 92 1020.9
20260831050139 71 131 2.0 2.0 0.00 0.00 0.00 92 1020.8
20260831045638 71 152 1.0 2.0 0.00 0.00 0.00 92 1021.0
20260831045133 71 132 1.0 1.0 0.00 0.00 0.00 92 1020.9
20260831044629 71 158 3.0 3.0 0.00 0.00 0.00 92 1020.9
20260831044124 71 183 3.0 3.0 0.00 0.00 0.00 91 1020.9
20260831043619 71 100 0.0 0.0 0.00 0.00 0.00 91 1020.7
20260831043114 71 107 0.0 0.0 0.00 0.00 0.00 91 1020.9
20260831042613 71 107 0.0 0.0 0.00 0.00 0.00 91 1020.9
20260831042103 71 175 0.0 1.0 0.00 0.00 0.00 90 1020.8
20260831041558 71 152 1.0 1.0 0.00 0.00 0.00 90 1021.0
20260831041057 71 142 1.0 1.0 0.00 0.00 0.00 90 1020.9
20260831040552 71 70 1.0 1.0 0.00 0.00 0.00 90 1021.1
20260831040051 71 145 1.0 1.0 0.00 0.00 0.00 90 1020.8
20260831035543 71 97 0.0 0.0 0.00 0.01 0.01 90 1021.1
20260831035039 71 180 2.0 3.0 0.00 0.01 0.01 90 1021.2
20260831034538 71 152 0.0 0.0 0.00 0.01 0.01 91 1021.0
20260831034034 71 113 0.0 0.0 0.00 0.01 0.01 91 1020.7
20260831033529 71 150 0.0 1.0 0.00 0.01 0.01 91 1020.9
20260831033025 71 160 1.0 1.0 0.00 0.01 0.01 91 1020.9
20260831032524 71 163 2.0 3.0 0.00 0.01 0.01 91 1021.1
20260831032020 71 150 0.0 1.0 0.00 0.01 0.01 91 1021.0
20260831031519 71 116 1.0 2.0 0.00 0.01 0.01 91 1021.1
20260831031019 71 182 1.0 1.0 0.00 0.01 0.01 92 1021.3
20260831030518 71 161 1.0 2.0 0.00 0.01 0.01 91 1021.1
20260831030017 71 122 0.0 0.0 0.00 0.01 0.01 91 1021.4
20260831025510 71 166 2.0 2.0 0.00 0.01 0.01 91 1021.4
20260831025005 71 163 1.0 1.0 0.00 0.01 0.01 92 1021.4
20260831024501 71 146 1.0 1.0 0.00 0.01 0.01 91 1021.6
20260831024000 71 139 0.0 0.0 0.00 0.01 0.01 91 1021.7
20260831023458 71 149 1.0 1.0 0.00 0.01 0.01 91 1021.5
20260831022953 71 162 1.0 1.0 0.00 0.01 0.01 91 1021.8
20260831022452 71 134 0.0 1.0 0.00 0.01 0.01 91 1021.7
20260831021948 71 137 1.0 1.0 0.00 0.01 0.01 91 1021.7
20260831021446 71 133 0.0 0.0 0.00 0.01 0.01 91 1021.6
20260831020943 71 131 0.0 0.0 0.00 0.01 0.01 91 1021.7
20260831020443 71 147 0.0 0.0 0.00 0.01 0.01 92 1021.7
20260831015937 71 177 1.0 1.0 0.00 0.01 0.01 93 1021.7
20260831015433 70 165 3.0 3.0 0.00 0.01 0.01 94 1021.8
20260831014928 70 164 1.0 1.0 0.00 0.01 0.01 94 1021.6
20260831014423 70 197 1.0 1.0 0.00 0.01 0.01 94 1021.8
20260831013919 70 138 0.0 0.0 0.00 0.01 0.01 94 1021.8
20260831013414 70 138 0.0 0.0 0.00 0.01 0.01 94 1022.0
20260831012908 70 138 0.0 0.0 0.00 0.01 0.01 94 1021.8
20260831012403 70 138 0.0 0.0 0.00 0.01 0.01 94 1021.9
20260831011858 70 138 0.0 0.0 0.00 0.01 0.01 94 1022.0
20260831011352 70 138 0.0 0.0 0.00 0.01 0.01 94 1022.0
20260831010848 70 138 0.0 0.0 0.00 0.01 0.01 94 1021.9
20260831010347 70 138 0.0 0.0 0.00 0.01 0.01 94 1021.8
20260831005838 70 138 0.0 0.0 0.00 0.01 0.01 94 1021.7
20260831005333 70 138 0.0 0.0 0.00 0.01 0.01 94 1022.0
20260831004827 71 138 0.0 0.0 0.00 0.01 0.01 94 1021.7
20260831004324 71 138 0.0 0.0 0.00 0.01 0.01 94 1021.7
20260831003819 71 138 1.0 1.0 0.00 0.01 0.01 93 1021.6
20260831003315 71 138 0.0 0.0 0.00 0.01 0.01 93 1021.7
20260831002815 71 138 0.0 0.0 0.00 0.01 0.01 93 1021.9
20260831002308 71 138 0.0 0.0 0.00 0.01 0.01 93 1021.6
20260831001804 71 138 0.0 0.0 0.00 0.01 0.01 93 1021.8
20260831001259 71 138 0.0 0.0 0.00 0.01 0.01 92 1021.6
20260831000757 71 138 0.0 0.0 0.00 0.01 0.01 92 1021.7
20260831000256 71 138 0.0 0.0 0.00 0.01 0.01 92 1021.6
20260830235755 71 138 0.0 0.0 0.00 0.01 0.01 92 1021.6
20260830235249 71 138 0.0 0.0 0.00 0.01 0.01 92 1021.4
20260830234739 72 138 0.0 0.0 0.00 0.01 0.01 92 1021.2
20260830234235 72 137 1.0 1.0 0.00 0.01 0.01 91 1021.4
20260830233731 72 137 0.0 0.0 0.00 0.01 0.01 90 1021.2
20260830233226 72 137 1.0 1.0 0.00 0.01 0.01 90 1021.1
20260830232721 72 137 0.0 0.0 0.00 0.01 0.01 90 1020.9
20260830232216 72 35 0.0 1.0 0.00 0.01 0.01 90 1021.1
20260830231713 73 70 0.0 0.0 0.00 0.01 0.01 89 1020.9
20260830231213 73 70 0.0 0.0 0.00 0.01 0.01 90 1020.8
20260830230708 73 13 1.0 1.0 0.00 0.01 0.01 89 1020.6
20260830230203 74 93 1.0 0.0 0.00 0.01 0.01 88 1020.3
20260830225657 74 94 0.0 0.0 0.00 0.01 0.01 86 1020.6
20260830225152 75 94 0.0 0.0 0.00 0.01 0.01 84 1020.4
20260830224651 75 119 0.0 0.0 0.00 0.01 0.01 82 1020.4
20260830224147 75 120 0.0 0.0 0.00 0.01 0.01 83 1020.5
20260830223644 75 144 0.0 0.0 0.00 0.01 0.01 83 1020.3
20260830223144 75 164 0.0 0.0 0.00 0.01 0.01 82 1020.2
20260830222638 75 132 0.0 0.0 0.00 0.01 0.01 82 1020.0
20260830222134 75 164 1.0 1.0 0.00 0.01 0.01 81 1020.2
20260830221630 75 153 0.0 0.0 0.00 0.01 0.01 82 1019.9
20260830221126 75 137 0.0 0.0 0.00 0.01 0.01 82 1019.6
20260830220621 75 148 0.0 0.0 0.00 0.01 0.01 82 1020.0
20260830220120 75 204 1.0 1.0 0.00 0.01 0.01 83 1020.0
20260830215619 75 168 0.0 0.0 0.00 0.01 0.01 83 1019.6
20260830215113 75 114 0.0 1.0 0.00 0.01 0.01 83 1019.5
20260830214609 75 87 2.0 2.0 0.00 0.01 0.01 82 1019.8
20260830214103 76 162 2.0 2.0 0.00 0.01 0.01 81 1020.2
20260830213557 76 116 2.0 2.0 0.00 0.01 0.01 81 1020.1
20260830213052 76 151 1.0 1.0 0.00 0.01 0.01 81 1020.4
20260830212548 76 150 1.0 1.0 0.00 0.01 0.01 81 1020.4
20260830212043 75 86 1.0 1.0 0.00 0.01 0.01 80 1020.3
20260830211538 75 104 1.0 1.0 0.00 0.01 0.01 80 1020.6
20260830211037 75 106 0.0 0.0 0.00 0.01 0.01 81 1020.3
20260830210532 75 163 1.0 1.0 0.00 0.01 0.01 80 1020.5
20260830210026 75 94 1.0 1.0 0.00 0.01 0.01 80 1020.5
20260830205524 75 99 0.0 1.0 0.00 0.01 0.01 81 1020.4
20260830205020 75 153 0.0 0.0 0.00 0.01 0.01 82 1020.6
20260830204518 75 147 0.0 0.0 0.00 0.01 0.01 84 1020.6
20260830204013 74 239 1.0 1.0 0.00 0.01 0.01 84 1020.6
20260830203509 74 157 1.0 1.0 0.00 0.01 0.01 84 1020.5
20260830203004 74 105 0.0 0.0 0.00 0.01 0.01 85 1020.6
20260830202458 74 147 1.0 1.0 0.00 0.01 0.01 84 1020.5
20260830201954 74 109 0.0 0.0 0.00 0.01 0.01 84 1020.3
20260830201452 74 123 0.0 0.0 0.00 0.01 0.01 83 1020.6
20260830200943 74 153 1.0 1.0 0.00 0.01 0.01 84 1020.4
20260830200442 74 121 0.0 0.0 0.00 0.01 0.01 83 1020.5
20260830195937 74 100 0.0 0.0 0.00 0.01 0.01 81 1021.0
20260830195432 74 112 1.0 1.0 0.00 0.01 0.01 82 1021.0
20260830194930 74 132 0.0 0.0 0.05 0.01 0.01 80 1021.1
20260830194430 75 149 0.0 0.0 0.05 0.01 0.01 78 1021.1
20260830193929 75 120 1.0 0.0 0.00 0.00 0.00 77 1021.3
20260830193429 75 119 0.0 0.0 0.00 0.00 0.00 77 1021.3
20260830192924 75 140 0.0 0.0 0.00 0.00 0.00 77 1021.4
20260830192420 75 146 0.0 0.0 0.00 0.00 0.00 76 1021.2
20260830191915 75 154 1.0 1.0 0.00 0.00 0.00 76 1021.4
20260830191415 75 123 0.0 0.0 0.00 0.00 0.00 74 1021.7
20260830190911 75 170 1.0 1.0 0.00 0.00 0.00 74 1021.6
20260830190406 76 153 1.0 1.0 0.00 0.00 0.00 73 1021.9
20260830185905 76 154 0.0 0.0 0.00 0.00 0.00 74 1022.0
20260830185400 76 164 1.0 1.0 0.00 0.00 0.00 72 1022.1
20260830184855 75 159 1.0 1.0 0.00 0.00 0.00 72 1022.3
20260830184354 75 341 1.0 1.0 0.00 0.00 0.00 71 1022.5
20260830183848 75 304 1.0 1.0 0.00 0.00 0.00 71 1022.4
20260830183343 75 327 1.0 1.0 0.00 0.00 0.00 68 1022.4
20260830182838 76 350 2.0 1.0 0.00 0.00 0.00 70 1022.5
20260830182334 76 343 2.0 2.0 0.00 0.00 0.00 69 1022.4
20260830181830 76 353 1.0 1.0 0.00 0.00 0.00 68 1022.6
20260830181325 76 11 0.0 0.0 0.00 0.00 0.00 70 1022.7
20260830180824 77 36 1.0 1.0 0.00 0.00 0.00 69 1022.6
20260830180319 77 40 0.0 0.0 0.00 0.00 0.00 67 1022.9
20260830175818 77 93 0.0 0.0 0.00 0.00 0.00 67 1022.7
20260830175313 76 6 0.0 0.0 0.00 0.00 0.00 67 1022.6
20260830174809 77 9 1.0 1.0 0.00 0.00 0.00 67 1022.5
20260830174304 77 13 1.0 1.0 0.00 0.00 0.00 67 1022.8
20260830173803 77 196 1.0 1.0 0.00 0.00 0.00 68 1022.7
20260830173259 77 67 0.0 0.0 0.00 0.00 0.00 71 1022.7
20260830172755 76 333 1.0 1.0 0.00 0.00 0.00 71 1022.7
20260830172252 76 242 1.0 1.0 0.00 0.00 0.00 70 1023.1
20260830171747 75 351 0.0 0.0 0.00 0.00 0.00 73 1022.9
20260830171242 75 4 2.0 2.0 0.00 0.00 0.00 74 1023.3
20260830170737 74 311 2.0 3.0 0.00 0.00 0.00 75 1023.1
20260830170236 74 300 2.0 2.0 0.00 0.00 0.00 76 1023.2
20260830165735 74 320 1.0 0.0 0.00 0.00 0.00 74 1023.4
20260830165231 74 31 0.0 1.0 0.00 0.00 0.00 77 1023.6
20260830164727 74 352 1.0 1.0 0.00 0.00 0.00 76 1023.5
20260830164222 73 327 3.0 3.0 0.00 0.00 0.00 77 1023.6
20260830163714 73 325 3.0 6.0 0.00 0.00 0.00 77 1023.7
20260830163209 73 318 2.0 2.0 0.00 0.00 0.00 77 1023.7
20260830162704 74 327 2.0 2.0 0.00 0.00 0.00 78 1023.7
20260830162200 73 178 1.0 1.0 0.00 0.00 0.00 79 1023.8
20260830161654 73 313 3.0 3.0 0.00 0.00 0.00 79 1023.6
20260830161149 73 61 0.0 0.0 0.00 0.00 0.00 80 1023.6
20260830160645 73 348 2.0 2.0 0.00 0.00 0.00 81 1023.6
20260830160139 73 32 2.0 3.0 0.00 0.00 0.00 80 1023.4
20260830155636 73 308 1.0 2.0 0.00 0.00 0.00 80 1023.6
20260830155132 73 47 0.0 0.0 0.00 0.00 0.00 79 1023.4
20260830154626 73 71 0.0 0.0 0.00 0.00 0.00 78 1023.7
20260830154122 73 353 2.0 2.0 0.00 0.00 0.00 78 1023.7
20260830153618 74 70 1.0 1.0 0.00 0.00 0.00 77 1023.5
20260830153112 74 165 1.0 1.0 0.00 0.00 0.00 76 1023.5
20260830152606 75 104 0.0 0.0 0.00 0.00 0.00 77 1023.5
20260830152105 75 101 1.0 1.0 0.00 0.00 0.00 71 1022.9
20260830151605 75 137 0.0 0.0 0.00 0.00 0.00 72 1023.3
20260830151100 75 136 0.0 0.0 0.00 0.00 0.00 76 1022.9
20260830150555 74 125 1.0 1.0 0.00 0.00 0.00 76 1022.9
20260830150049 74 125 0.0 0.0 0.00 0.00 0.00 75 1023.2
20260830145543 74 125 0.0 0.0 0.00 0.00 0.00 75 1022.8
20260830145039 74 125 0.0 0.0 0.00 0.00 0.00 75 1022.8
20260830144535 73 163 0.0 0.0 0.00 0.00 0.00 76 1022.7
20260830144030 73 165 0.0 0.0 0.00 0.00 0.00 76 1022.7
20260830143526 72 151 1.0 1.0 0.00 0.00 0.00 78 1022.6
20260830143024 72 145 1.0 1.0 0.00 0.00 0.00 78 1022.8
20260830142520 71 90 0.0 0.0 0.00 0.00 0.00 80 1022.9
20260830142014 71 90 0.0 0.0 0.00 0.00 0.00 81 1022.9
20260830141509 71 90 0.0 0.0 0.00 0.00 0.00 82 1022.7
20260830141004 71 90 0.0 0.0 0.00 0.00 0.00 82 1022.8
20260830140459 71 90 0.0 0.0 0.00 0.00 0.00 81 1022.5
20260830135958 72 99 0.0 0.0 0.00 0.00 0.00 78 1022.4
20260830135454 72 99 0.0 0.0 0.00 0.00 0.00 75 1022.3
20260830134949 72 116 0.0 0.0 0.00 0.00 0.00 73 1022.1
20260830134445 73 205 1.0 1.0 0.00 0.00 0.00 72 1022.0
20260830133940 73 127 0.0 0.0 0.00 0.00 0.00 71 1021.9
20260830133436 73 72 1.0 1.0 0.00 0.00 0.00 69 1021.7
20260830132931 73 39 0.0 0.0 0.00 0.00 0.00 71 1021.8
20260830132427 73 167 1.0 1.0 0.00 0.00 0.00 70 1021.5
20260830131926 73 262 1.0 1.0 0.00 0.00 0.00 71 1021.7
20260830131426 73 251 3.0 5.0 0.00 0.00 0.00 70 1021.7
20260830130920 72 128 1.0 1.0 0.00 0.00 0.00 71 1021.6
20260830130416 72 41 0.0 0.0 0.00 0.00 0.00 71 1021.8
20260830125914 71 63 1.0 1.0 0.00 0.00 0.00 72 1021.8
20260830125410 71 66 0.0 1.0 0.00 0.00 0.00 73 1021.8
20260830124908 71 184 1.0 1.0 0.00 0.00 0.00 72 1021.8
20260830124403 71 334 1.0 1.0 0.00 0.00 0.00 73 1022.1
20260830123859 70 193 1.0 1.0 0.00 0.00 0.00 72 1022.2
20260830123356 70 125 0.0 0.0 0.00 0.00 0.00 74 1021.7
20260830122854 70 160 0.0 1.0 0.00 0.00 0.00 74 1021.8
20260830122348 70 56 0.0 0.0 0.00 0.00 0.00 73 1021.9
20260830121844 70 161 0.0 0.0 0.00 0.00 0.00 73 1021.8
20260830121343 71 127 0.0 0.0 0.00 0.00 0.00 72 1021.7
20260830120838 71 148 2.0 2.0 0.00 0.00 0.00 71 1021.9
20260830120334 71 109 0.0 0.0 0.00 0.00 0.00 71 1021.7
20260830115830 71 179 2.0 2.0 0.00 0.00 0.00 70 1021.6
20260830115326 71 156 1.0 3.0 0.00 0.00 0.00 70 1021.8
20260830114821 71 150 0.0 0.0 0.00 0.00 0.00 70 1021.8
20260830114318 71 144 0.0 0.0 0.00 0.00 0.00 70 1021.9
20260830113813 71 152 1.0 1.0 0.00 0.00 0.00 70 1021.8
20260830113308 71 147 1.0 1.0 0.00 0.00 0.00 71 1021.7
20260830112803 71 115 0.0 0.0 0.00 0.00 0.00 71 1021.8
20260830112259 71 160 1.0 1.0 0.00 0.00 0.00 71 1021.5
20260830111749 70 116 0.0 0.0 0.00 0.00 0.00 71 1021.6
20260830111244 69 155 0.0 0.0 0.00 0.00 0.00 72 1021.8
20260830110743 69 100 0.0 0.0 0.00 0.00 0.00 75 1021.7
20260830110241 68 147 0.0 0.0 0.00 0.00 0.00 76 1021.6
20260830105739 68 107 0.0 0.0 0.00 0.00 0.00 78 1021.6
20260830105235 68 98 0.0 0.0 0.00 0.00 0.00 82 1021.6
20260830104727 68 141 1.0 1.0 0.00 0.00 0.00 78 1021.8
20260830104223 69 160 0.0 0.0 0.00 0.00 0.00 78 1021.8
20260830103722 68 160 0.0 0.0 0.00 0.00 0.00 76 1021.6
20260830103218 68 106 0.0 0.0 0.00 0.00 0.00 77 1021.9
20260830102715 68 133 0.0 0.0 0.00 0.00 0.00 78 1021.8
20260830102212 68 114 0.0 0.0 0.00 0.00 0.00 81 1021.9
20260830101708 68 114 0.0 0.0 0.00 0.00 0.00 80 1021.5
20260830101203 68 123 0.0 0.0 0.00 0.00 0.00 78 1021.9
20260830100702 67 133 0.0 0.0 0.00 0.00 0.00 79 1021.9
20260830100156 67 91 0.0 0.0 0.00 0.00 0.00 81 1021.9
20260830095650 66 145 0.0 0.0 0.00 0.00 0.00 85 1021.8
20260830095147 66 145 0.0 0.0 0.00 0.00 0.00 86 1022.0
20260830094642 66 100 0.0 0.0 0.00 0.00 0.00 86 1022.1
20260830094137 66 138 0.0 0.0 0.00 0.00 0.00 87 1021.9
20260830093633 66 138 0.0 0.0 0.00 0.00 0.00 86 1021.9
20260830093129 67 138 0.0 0.0 0.00 0.00 0.00 84 1021.7
20260830092623 68 138 0.0 0.0 0.00 0.00 0.00 83 1021.9
20260830092121 68 139 0.0 0.0 0.00 0.00 0.00 78 1021.9
20260830091615 68 139 0.0 0.0 0.00 0.00 0.00 75 1022.1
20260830091114 69 132 0.0 0.0 0.00 0.00 0.00 74 1022.0
20260830090610 69 130 0.0 0.0 0.00 0.00 0.00 73 1021.9
20260830090105 69 124 0.0 0.0 0.00 0.00 0.00 73 1022.0
20260830085604 69 125 0.0 0.0 0.00 0.00 0.00 72 1021.9
20260830085100 69 152 0.0 0.0 0.00 0.00 0.00 71 1021.7
20260830084556 69 78 0.0 0.0 0.00 0.00 0.00 72 1021.8
20260830084055 69 122 0.0 0.0 0.00 0.00 0.00 72 1021.8
20260830083551 69 166 1.0 2.0 0.00 0.00 0.00 72 1021.8
20260830083051 69 122 0.0 0.0 0.00 0.00 0.00 72 1021.7
20260830082551 69 145 0.0 0.0 0.00 0.00 0.00 73 1021.9
20260830082047 69 137 1.0 1.0 0.00 0.00 0.00 72 1022.0
20260830081543 68 147 0.0 0.0 0.00 0.00 0.00 72 1021.8
20260830081042 68 137 0.0 0.0 0.00 0.00 0.00 73 1022.0
20260830080532 68 141 0.0 0.0 0.00 0.00 0.00 73 1021.9
20260830080027 68 159 0.0 0.0 0.00 0.00 0.00 74 1022.1
20260830075526 68 162 0.0 0.0 0.00 0.00 0.00 73 1022.2
20260830075022 68 162 0.0 0.0 0.00 0.00 0.00 75 1022.0
20260830074518 68 162 0.0 0.0 0.00 0.00 0.00 76 1021.9
20260830074014 67 162 0.0 0.0 0.00 0.00 0.00 77 1022.1
20260830073509 67 162 0.0 0.0 0.00 0.00 0.00 79 1022.0
20260830073004 66 162 0.0 0.0 0.00 0.00 0.00 81 1022.2
20260830072459 66 162 0.0 0.0 0.00 0.00 0.00 83 1021.9
20260830071954 66 162 1.0 1.0 0.00 0.00 0.00 85 1022.0
20260830071450 66 159 0.0 0.0 0.00 0.00 0.00 86 1022.0
20260830070947 66 159 0.0 0.0 0.00 0.00 0.00 86 1022.2
20260830070442 66 159 0.0 0.0 0.00 0.00 0.00 85 1022.3
20260830065941 66 159 0.0 0.0 0.00 0.00 0.00 84 1022.2
20260830065436 66 159 0.0 0.0 0.00 0.00 0.00 82 1022.5
20260830064933 66 159 0.0 0.0 0.00 0.00 0.00 80 1022.4
20260830064430 66 159 0.0 0.0 0.00 0.00 0.00 81 1022.2
20260830063929 66 159 0.0 0.0 0.00 0.00 0.00 82 1022.2
20260830063423 66 159 0.0 0.0 0.00 0.00 0.00 82 1022.3
20260830062917 66 159 0.0 0.0 0.00 0.00 0.00 82 1022.4
20260830062416 66 159 1.0 1.0 0.00 0.00 0.00 83 1022.3
20260830061912 66 159 0.0 0.0 0.00 0.00 0.00 83 1022.4
20260830061406 66 159 1.0 1.0 0.00 0.00 0.00 84 1022.3
20260830060903 66 159 1.0 1.0 0.00 0.00 0.00 85 1022.7
20260830060359 66 159 0.0 0.0 0.00 0.00 0.00 85 1022.7
20260830055854 65 159 0.0 0.0 0.00 0.00 0.00 86 1022.6
20260830055349 65 159 0.0 0.0 0.00 0.00 0.00 87 1022.6
20260830054844 65 159 0.0 0.0 0.00 0.00 0.00 88 1022.6
20260830054340 65 159 0.0 0.0 0.00 0.00 0.00 88 1022.6
20260830053836 64 159 1.0 1.0 0.00 0.00 0.00 89 1022.6
20260830053331 64 159 1.0 1.0 0.00 0.00 0.00 89 1022.6
20260830052830 64 159 1.0 1.0 0.00 0.00 0.00 89 1022.5